This is the latest recevied weather packets stored in our database for station/object SP9EPI-13. If no packets are shown the sender has not sent any weather packets the latest 1 day(s).
| Time | Temp. | Humidity | Pressure | Rain* | Wind** | Luminosity | Snow |
|---|---|---|---|---|---|---|---|
| 1778067601 | 25° C | 38% | 1003 hPa | - | - | - | - |
| 1778066401 | 26.11° C | 36% | 1003 hPa | - | - | - | - |
| 1778065201 | 26.11° C | 37% | 1003 hPa | - | - | - | - |
| 1778062801 | 26.11° C | 41% | 1003 hPa | - | - | - | - |
| 1778057401 | 22.78° C | 44% | 1003 hPa | - | - | - | - |
| 1778056801 | 23.89° C | 46% | 1003 hPa | - | - | - | - |
| 1778052601 | 22.78° C | 44% | 1002.3 hPa | - | - | - | - |
| 1778052001 | 22.22° C | 45% | 1002.3 hPa | - | - | - | - |
| 1778047801 | 21.11° C | 47% | 1002.3 hPa | - | - | - | - |
| 1778046601 | 20° C | 51% | 1002.3 hPa | - | - | - | - |
| 1778046001 | 20° C | 50% | 1002.3 hPa | - | - | - | - |
| 1778045401 | 18.89° C | 58% | 1002.3 hPa | - | - | - | - |
| 1778044801 | 16.11° C | 67% | 1002.3 hPa | - | - | - | - |
| 1778044201 | 16.11° C | 69% | 1002.3 hPa | - | - | - | - |
| 1778043602 | 16.11° C | 69% | 1002.3 hPa | - | - | - | - |
| 1778041801 | 15° C | 70% | 1002 hPa | - | - | - | - |
| 1778041201 | 13.89° C | 78% | 1002 hPa | - | - | - | - |
| 1778040601 | 12.78° C | 78% | 1002 hPa | - | - | - | - |
| 1778040001 | 12.78° C | 77% | 1002.3 hPa | - | - | - | - |
| 1778039401 | 12.78° C | 78% | 1002.3 hPa | - | - | - | - |
| 1778037601 | 11.11° C | 80% | 1002.3 hPa | - | - | - | - |
| 1778037001 | 11.11° C | 78% | 1002.3 hPa | - | - | - | - |
| 1778036401 | 11.11° C | 81% | 1002.3 hPa | - | - | - | - |
| 1778035801 | 12.22° C | 89% | 1002.3 hPa | - | - | - | - |
| 1778035200 | 12.22° C | 88% | 1002.3 hPa | - | - | - | - |
* Rain since midnight (hover to see other rain measurements)
** Current wind speed in m/s (hover to see current wind gust speed)